This demonstration page uses our WeatherBlox Daily Observations layout. Learn more.

Left ArrowRight Arrow

39.51506, -84.39828

Hourly Observations for March 13, 2020

Temp ( °F °C ) Dew Point ( °F °C ) Humidity (%) Winds ( mph kmh ) Pressure ( in mb ) Visibility ( mi km ) Precip ( " mm )
12:15 am 00:15 Cloudy with Rain 59 15 58 14.7 98 98 SW 8 13 29.67 1005 10 16.0934 0 0
12:35 am 00:35 Cloudy with Drizzle 60 15.3 59 15.1 99 99 SW 12 19 29.68 1005 5 8.0467 0 0
12:55 am 00:55 Cloudy with Drizzle 60 15.6 60 15.3 98 98 WSW 12 19 29.69 1005 5 8.0467 0 0
1:15 am 01:15 Cloudy with Drizzle 61 15.9 59 15.1 95 95 W 16 26 29.69 1006 10 16.0934 0 0
1:35 am 01:35 Cloudy with Nearby Thunderstorms 60 15.8 58 14.5 92 92 W 16 26 29.7 1006 10 16.0934 0 0
1:55 am 01:55 Cloudy 60 15.5 57 14 91 91 W 10 17 29.72 1006 10 16.0934 0 0
2:15 am 02:15 Cloudy 59 15.1 56 13.3 89 89 WNW 12 19 29.74 1007 10 16.0934 0 0
2:35 am 02:35 Cloudy 58 14.6 55 12.5 87 87 WNW 17 28 29.76 1008 10 16.0934 0 0
2:55 am 02:55 Cloudy 57 14 54 12 88 88 WNW 10 17 29.77 1008 10 16.0934 0 0
3:15 am 03:15 Mostly Cloudy 57 13.7 53 11.7 88 88 W 12 19 29.79 1009 10 16.0934 0 0
3:35 am 03:35 Cloudy 56 13.6 52 11 84 84 WNW 10 17 29.8 1009 10 16.0934 0 0
3:55 am 03:55 Cloudy 56 13.6 51 10.6 82 82 WNW 15 24 29.81 1009 10 16.0934 0 0
4:15 am 04:15 Cloudy 56 13.3 51 10.6 84 84 W 9 15 29.82 1010 10 16.0934 0 0
4:35 am 04:35 Cloudy 56 13.3 51 10.3 82 82 W 12 19 29.83 1010 10 16.0934 0 0
4:55 am 04:55 Cloudy 55 12.9 50 9.8 82 82 W 17 28 29.86 1011 10 16.0934 0 0
5:15 am 05:15 Mostly Cloudy 53 11.6 46 8 79 79 WNW 17 28 29.9 1013 10 16.0934 0 0
5:35 am 05:35 Partly Cloudy 51 10.5 44 6.4 76 76 W 16 26 29.93 1013 10 16.0934 0 0
5:55 am 05:55 Cloudy 50 10.1 44 6.5 79 79 W 15 24 29.95 1014 10 16.0934 0 0
6:15 am 06:15 Cloudy 49 9.5 44 6.4 81 81 W 16 26 29.98 1015 10 16.0934 0 0
6:35 am 06:35 Partly Cloudy 47 8.4 42 5.4 82 82 W 13 20 30 1016 10 16.0934 0 0
6:55 am 06:55 Mostly Cloudy 47 8.1 41 4.9 80 80 W 12 19 30.01 1016 10 16.0934 0 0
7:15 am 07:15 Mostly Cloudy 45 7.4 40 4.2 80 80 W 14 22 30.05 1017 10 16.0934 0 0
7:35 am 07:35 Clear 44 6.8 38 3.2 78 78 WNW 17 28 30.07 1018 10 16.0934 0 0
7:55 am 07:55 Sunny 43 6.2 37 2.9 80 80 WNW 14 22 30.08 1019 10 16.0934 0 0
8:15 am 08:15 Sunny 43 5.9 36 2.4 78 78 W 12 19 30.09 1019 10 16.0934 0 0
8:35 am 08:35 Sunny 43 6 35 1.8 75 75 WNW 15 24 30.11 1020 10 16.0934 0 0
8:55 am 08:55 Sunny 43 6.3 35 1.9 74 74 WNW 14 22 30.13 1020 10 16.0934 0 0
9:15 am 09:15 Sunny 43 6.3 34 1.2 70 70 W 16 26 30.15 1021 10 16.0934 0 0
9:35 am 09:35 Sunny 43 6.3 34 1 69 69 W 13 20 30.16 1021 10 16.0934 0 0
9:55 am 09:55 Sunny 44 6.5 34 0.9 68 68 WNW 15 24 30.18 1022 10 16.0934 0 0
10:15 am 10:15 Partly Cloudy 44 6.9 34 1 66 66 W 16 26 30.19 1022 10 16.0934 0 0
10:35 am 10:35 Sunny 45 7.3 34 1.1 65 65 WNW 15 24 30.19 1022 10 16.0934 0 0
10:55 am 10:55 Sunny 46 7.7 33 0.6 61 61 W 17 28 30.2 1023 10 16.0934 0 0
11:15 am 11:15 Sunny 47 8.1 32 0.2 58 58 W 13 20 30.2 1023 10 16.0934 0 0
11:35 am 11:35 Sunny 47 8.4 33 0.6 58 58 W 16 26 30.21 1023 10 16.0934 0 0
11:55 am 11:55 Sunny 48 8.9 30 -1 50 50 WNW 14 22 30.22 1023 10 16.0934 0 0
12:15 pm 12:15 Sunny 49 9.5 28 -2.1 45 45 W 17 28 30.23 1024 10 16.0934 0 0
12:35 pm 12:35 Sunny 48 8.9 28 -2.2 46 46 W 17 28 30.25 1024 10 16.0934 0 0
12:55 pm 12:55 Sunny 47 8.6 27 -2.7 45 45 W 15 24 30.25 1024 10 16.0934 0 0
1:15 pm 13:15 Sunny 48 8.9 26 -3.3 42 42 WNW 16 26 30.25 1024 10 16.0934 0 0
1:35 pm 13:35 Sunny 49 9.6 27 -2.9 42 42 W 17 28 30.26 1025 10 16.0934 0 0
1:55 pm 13:55 Sunny 49 9.2 26 -3.6 41 41 W 16 26 30.26 1025 10 16.0934 0 0
2:15 pm 14:15 Sunny 49 9.4 24 -4.3 38 38 W 15 24 30.27 1025 10 16.0934 0 0
2:35 pm 14:35 Sunny 50 10 24 -4.2 37 37 W 17 28 30.27 1025 10 16.0934 0 0
2:55 pm 14:55 Sunny 50 10.2 26 -3.3 39 39 W 13 20 30.27 1025 10 16.0934 0 0
3:15 pm 15:15 Sunny 50 10.2 28 -2.4 42 42 W 16 26 30.27 1025 10 16.0934 0 0
3:35 pm 15:35 Sunny 50 10.2 26 -3.5 38 38 WNW 14 22 30.27 1025 10 16.0934 0 0
3:55 pm 15:55 Sunny 51 10.8 27 -2.8 39 39 NW 16 26 30.27 1025 10 16.0934 0 0
4:15 pm 16:15 Sunny 51 10.3 25 -3.7 37 37 WNW 18 30 30.27 1025 10 16.0934 0 0
4:35 pm 16:35 Sunny 51 10.6 25 -3.8 36 36 WNW 10 17 30.28 1025 10 16.0934 0 0
4:55 pm 16:55 Sunny 51 10.3 26 -3.2 39 39 W 13 20 30.28 1025 10 16.0934 0 0
5:15 pm 17:15 Sunny 50 9.9 25 -4.1 37 37 WNW 12 19 30.3 1026 10 16.0934 0 0
5:35 pm 17:35 Sunny 50 9.9 26 -3.1 40 40 W 14 22 30.31 1026 10 16.0934 0 0
5:55 pm 17:55 Sunny 49 9.7 26 -3.6 39 39 WNW 12 19 30.32 1027 10 16.0934 0 0
6:15 pm 18:15 Sunny 49 9.7 25 -4.1 38 38 W 12 19 30.32 1027 10 16.0934 0 0
6:35 pm 18:35 Sunny 49 9.4 25 -3.7 40 40 W 9 15 30.32 1027 10 16.0934 0 0
6:55 pm 18:55 Sunny 48 9 25 -3.7 41 41 W 8 13 30.33 1027 10 16.0934 0 0
7:15 pm 19:15 Sunny 47 8.5 26 -3.2 44 44 WNW 5 7 30.33 1027 10 16.0934 0 0
7:35 pm 19:35 Sunny 46 7.9 26 -3.6 44 44 W 8 13 30.34 1028 10 16.0934 0 0
7:55 pm 19:55 Clear 45 7.4 25 -3.9 45 45 W 7 11 30.35 1028 10 16.0934 0 0
8:15 pm 20:15 Clear 44 6.7 25 -3.7 48 48 W 5 7 30.36 1028 10 16.0934 0 0
8:35 pm 20:35 Clear 42 5.5 30 -1.2 62 62 W 3 6 30.38 1029 10 16.0934 0 0
8:55 pm 20:55 Clear 41 4.9 27 -2.6 59 59 W 3 6 30.38 1029 10 16.0934 0 0
9:15 pm 21:15 Clear 38 3.3 30 -0.9 74 74 Calm 30.4 1029 10 16.0934 0 0
9:35 pm 21:35 Clear 37 3 29 -1.4 73 73 Calm 30.4 1029 10 16.0934 0 0
9:55 pm 21:55 Clear 37 2.7 30 -0.9 77 77 Calm 30.4 1029 10 16.0934 0 0
10:15 pm 22:15 Clear 37 3 30 -0.9 76 76 Calm 30.41 1030 10 16.0934 0 0
10:35 pm 22:35 Clear 36 2.3 30 -1 79 79 Calm 30.42 1030 10 16.0934 0 0
10:55 pm 22:55 Clear 35 1.7 32 -0.2 87 87 Calm 30.42 1030 10 16.0934 0 0
11:15 pm 23:15 Clear 33 0.6 29 -1.6 85 85 Calm 30.44 1031 10 16.0934 0 0
11:35 pm 23:35 Clear 34 0.9 30 -1.3 85 85 Calm 30.44 1031 10 16.0934 0 0
11:55 pm 23:55 Clear 34 0.9 29 -1.5 84 84 Calm 30.44 1031 10 16.0934 0 0

Powered by AerisWeather